Location: Seasalter
(51.3333°N, 1.0167°E)
Time: 06:52:48
(UTC+00:00)

ATLAS 5 CENTAUR R/B - Pass Details

Date: 24 April 2024
Orbit: 421 x 1169 km, 63.3° (Epoch: 18 May)

Event Time Altitude Azimuth Distance (km) Brightness Sun altitude
Rises 03:03:44 0° 306° (NW) 3,036 5.0 -13.7°
Reaches altitude 10° 03:06:21 10° 290° (WNW) 2,246 4.2 -13.4°
Maximum altitude 03:10:15 22° 241° (WSW) 1,747 3.3 -12.9°
Drops below altitude 10° 03:14:44 10° 194° (SSW) 2,626 4.3 -12.4°
Sets 03:18:04 0° 180° (S) 3,704 5.2 -12.0°
